Regional Weather Roundup
Issued by NWS Huntsville, AL

Home | Current Version | Previous Version | Text Only | Print | Product List | Glossary On
Versions: 1 2 3 4 5 6 7 8 9 10 11 12 13 14 15 16 17 18 19 20 21 22 23 24 25 26 27
000
ASUS44 KHUN 230410
RWRHUN

WEATHER ROUNDUP FOR THE TENNESSEE VALLEY
NATIONAL WEATHER SERVICE HUNTSVILLE AL
1100 PM CDT SUN OCT 22 2017

ALZ001>004-230500-
NORTHWEST ALABAMA

CITY           SKY/WX    TMP DP  RH WIND       PRES   REMARKS
COURTLAND HCN    N/A     72 N/A N/A SE13        N/A
RUSSELLVILLE     N/A     68 N/A N/A MISG        N/A
SHOALS AIRPORT HVY RAIN  70  67  90 S13G23    29.95S
SHOALS TVA RES   N/A     70 N/A N/A MISG        N/A
$$

ALZ005>007-016-230500-
NORTH CENTRAL ALABAMA

CITY           SKY/WX    TMP DP  RH WIND       PRES   REMARKS
CULLMAN AG STN   N/A     68 N/A N/A SE6         N/A
DECATUR AP     LGT RAIN  70  68  93 SE18G25   29.95F
HUNTSVILLE AP  LGT RAIN  70  69  97 SE20G25   29.96F
MERIDIANVILLE  LGT RAIN  70  63  78 SE16G29   29.97F
REDSTONE ARSN  LGT RAIN  69  67  92 SE13G23   29.95F
VINEMONT AP    RAIN      67  66  96 SE8G17    30.00F
$$

ALZ008>010-230500-
NORTHEAST ALABAMA

CITY           SKY/WX    TMP DP  RH WIND       PRES   REMARKS
ALBERTVILLE    LGT RAIN  66  66 100 E7G16     30.03F
FORT PAYNE     CLOUDY    70  61  73 SE10G20   30.04F
SCOTTSBORO AP  DRIZZLE   70  66  88 VRB3G14   30.03S
SCOTTSBORO HCN   N/A     70 N/A N/A MISG        N/A
VALLEY HEAD      N/A     70 N/A N/A MISG        N/A
$$

TNZ076-096-097-230500-
SOUTHEASTERN MIDDLE TENNESSEE

CITY           SKY/WX    TMP DP  RH WIND       PRES   REMARKS
TULLAHOMA      MOCLDY    70  59  68 SE13      29.99F
WINCHESTER     CLOUDY    70  63  78 SE12G22     N/A
$$

...SURROUNDING SITES...

CITY           SKY/WX    TMP DP  RH WIND       PRES   REMARKS
ATLANTA        DRIZZLE   67  67 100 E12       30.13F FOG
ANNISTON       CLOUDY    70  66  87 E6        30.05F
BIRMINGHAM     RAIN      70  68  93 SE14G21   30.02F FOG
CHATTANOOGA    CLOUDY    71  61  70 SE13G23   30.07F
CORINTH        DRIZZLE   63  61  94 W8        29.96S
DALTON         CLOUDY    70  63  78 SE14G22   30.11F
GADSDEN        LGT RAIN  70  70 100 E5          N/A
GOLDEN TRNGL   CLOUDY    64  63  96 NW8       29.98R
HALEYVILLE     LGT RAIN  68  68 100 SE13G23   29.97S
JACKSON TN     CLOUDY    59  58  96 NW6       29.96R
MEMPHIS        CLOUDY    59  57  93 NW6       30.00S
NASHVILLE      CLOUDY    73  62  68 SE14      29.94F
ROME           CLOUDY    71  65  81 SE12      30.08F
SAVANNAH       CLOUDY    64  63  94 W6        29.94R
SELMER         CLOUDY    63  61  94 W8        29.94F FOG
TUPELO         CLOUDY    63  60  90 VRB3      29.97S
TUSCALOOSA     CLOUDY    71  70  96 SE8G20    29.93F
$$

...GULF COAST WEATHER...

CITY           SKY/WX    TMP DP  RH WIND       PRES   REMARKS
GULFPORT       CLOUDY    70  69  97 NW12      30.00R
PASCAGOULA     PTCLDY    68  66  93 W3        29.97R
MOBILE         CLOUDY    69  67  93 W5        29.97R
GULF SHORES    CLOUDY    70  70 100 E16G29    29.93F
PENSACOLA      CLOUDY    72  70  93 E8        29.95F
DESTIN         HVY RAIN  75  71  87 VRB3      30.01  VSB 3/4
PANAMA CITY    DRIZZLE   75  73  93 SE6       30.01F
APPALACHICOLA  CLOUDY    79  76  90 S9        30.03F
$$





USA.gov is the U.S. government's official web portal to all federal, state and local government web resources and services.